Flag for Netherlands Weather past 2 weeks in Amersfoort, Netherlands

Now
61 °F

Partly cloudy.


Feels Like: 61 °F
Forecast: 60 / 72 °F
Wind: 1 mph from Southwest

Location: Deelen

Current Time: Jul 5, 2015 at 6:36:51 AM

Latest Report: Jul 5, 2015 at 5:55 AM


Visibility: N/A

Pressure: 30.09 "Hg

Humidity: 94%

Dew point: 59 °F

Location of AmersfoortLocation

Historic Weather in Amersfoort — Graph

°F

Amersfoort temperature yesterday

Maximum temperature yesterday: 91 °F (at 2:25 PM)
Minimum temperature yesterday: 70 °F (at 11:55 PM)
Average temperature yesterday: 80 °F

Past Weeks' High & Low Weather Summary

 TemperatureHumidityPressure
High97 °F (Jul 2, 3:25 PM)100% (Jun 20, 5:55 AM)30.24 "Hg (Jun 20, 5:55 AM)
Low45 °F (Jun 23, 2:55 AM)26% (Jul 1, 4:25 PM)29.68 "Hg (Jun 22, 5:55 PM)
Average66 °F72%30.06 "Hg
* Reported Jun 20 4:25 AM — Jul 5 4:55 AM, Amersfoort, Weather by CustomWeather, © 2015

Note: Actual official high and low records may vary slightly from our data, if they occured in-between our weather recording intervals... More about our weather records

Advertising

Amersfoort weather history for previous 24 hours

 ConditionsComfort  
Time TempWeatherWind HumidityBarometerVisibility
4:55 AM
Sun, Jul 5
63 °FPassing clouds.1 mph94%30.09 "HgN/A
4:25 AM63 °FPassing clouds.No wind94%30.09 "HgN/A
3:55 AM64 °FOvercast.1 mph88%30.12 "HgN/A
3:25 AM64 °FOvercast.No wind88%30.12 "HgN/A
2:55 AM64 °FPassing clouds.2 mph88%30.12 "HgN/A
2:25 AM64 °FPassing clouds.2 mph88%30.12 "HgN/A
1:55 AM66 °FMild.2 mph83%30.12 "HgN/A
1:25 AM68 °FPassing clouds.3 mph78%30.12 "HgN/A
12:55 AM68 °FMild.2 mph78%30.12 "HgN/A
12:25 AM70 °FMild.2 mph73%30.12 "HgN/A
11:55 PM
Sat, Jul 4
70 °FPassing clouds.3 mph73%30.12 "HgN/A
11:25 PM72 °FOvercast.6 mph69%30.12 "HgN/A
10:55 PM73 °FOvercast.7 mph65%30.12 "HgN/A
10:25 PM73 °FOvercast.5 mph61%30.12 "HgN/A
9:55 PM75 °FPartly sunny.3 mph57%30.09 "HgN/A
9:25 PM77 °FOvercast.3 mph54%30.09 "HgN/A
8:55 PM79 °FOvercast.6 mph48%30.09 "HgN/A
8:25 PM79 °FOvercast.8 mph48%30.09 "HgN/A
7:55 PM82 °FPartly sunny.9 mph42%30.09 "HgN/A
7:25 PM84 °FOvercast.10 mph33%30.07 "HgN/A
6:55 PM84 °FPartly sunny.10 mph35%30.09 "HgN/A
6:25 PM88 °FPassing clouds.10 mph38%30.07 "HgN/A
5:55 PM90 °FHot.9 mph36%30.07 "HgN/A
5:25 PM90 °FPartly sunny.9 mph36%30.07 "HgN/A
4:55 PM91 °FBroken clouds.10 mph44%30.07 "HgN/A
4:25 PM91 °FScattered clouds.9 mph46%30.07 "HgN/A
3:55 PM91 °FScattered clouds.7 mph46%30.07 "HgN/A
3:25 PM91 °FHot.8 mph46%30.07 "HgN/A
2:55 PM91 °FPassing clouds.10 mph49%30.07 "HgN/A
2:25 PM91 °FScattered clouds.9 mph46%30.04 "HgN/A
1:55 PM90 °FPassing clouds.9 mph52%30.07 "HgN/A
1:25 PM90 °FHot.10 mph59%30.04 "HgN/A
12:55 PM90 °FScattered clouds.8 mph55%30.04 "HgN/A
12:25 PM86 °FWarm.8 mph62%30.04 "HgN/A
11:55 AM84 °FOvercast.12 mph62%30.04 "HgN/A
11:25 AM86 °FScattered clouds.10 mph59%30.04 "HgN/A
10:55 AM84 °FPassing clouds.6 mph66%30.04 "HgN/A
10:25 AM84 °FPartly sunny.8 mph62%30.04 "HgN/A
9:55 AM82 °FPassing clouds.8 mph66%30.01 "HgN/A
9:25 AM81 °FPassing clouds.10 mph70%30.01 "HgN/A
8:55 AM81 °FPassing clouds.9 mph66%30.04 "HgN/A
8:25 AM79 °FPartly sunny.9 mph70%30.04 "HgN/A
7:55 AM75 °FPassing clouds.8 mph78%30.04 "HgN/A
7:25 AM73 °FMild.7 mph78%30.04 "HgN/A
6:55 AM72 °FFog.7 mph83%30.04 "Hg6 mi
6:25 AM72 °FFog.9 mph83%30.04 "Hg6 mi
Weather by CustomWeather, © 2015

See weather overviewHow to use our weather pages